Estación de Peldehue
Ultimos registro cada 15 minutos 42
| N° | Estación | Fecha / Hora | Temperatura | Humedad | Lluvia | Velocidad | Dirección | Radiación | Presion |
| 42 | Peldehue | 05-05-2026 10:15 | 18,1 | 38,2 | 0 | 0 | 206 | 301,9 | 933,2 |
| 41 | Peldehue | 05-05-2026 10:00 | 19,1 | 34,8 | 0 | 0 | 208 | 458,1 | 933,3 |
| 40 | Peldehue | 05-05-2026 09:45 | 16,9 | 38,6 | 0 | 0 | 208 | 420,6 | 933,4 |
| 39 | Peldehue | 05-05-2026 09:30 | 14,3 | 43,3 | 0 | 0 | 208 | 143,1 | 933,9 |
| 38 | Peldehue | 05-05-2026 09:15 | 13,9 | 43,3 | 0 | 0 | 208 | 104,4 | 934,1 |
| 37 | Peldehue | 05-05-2026 09:00 | 13,3 | 47,7 | 0 | 0 | 208 | 131,9 | 934,3 |
| 36 | Peldehue | 05-05-2026 08:45 | 12,4 | 49,3 | 0 | 0 | 208 | 111,9 | 934,5 |
| 35 | Peldehue | 05-05-2026 08:30 | 11,5 | 51,3 | 0 | 0 | 208 | 60,6 | 934,6 |
| 34 | Peldehue | 05-05-2026 08:15 | 11 | 52,7 | 0 | 0 | 208 | 26,9 | 934,6 |
| 33 | Peldehue | 05-05-2026 08:00 | 11,2 | 51,2 | 0 | 0 | 208 | 30,6 | 934,7 |
| 32 | Peldehue | 05-05-2026 07:45 | 11 | 49,9 | 0 | 0 | 208 | 15,6 | 934,5 |
| 31 | Peldehue | 05-05-2026 07:30 | 11,9 | 48,8 | 0 | 0 | 208 | 4,4 | 934,5 |
| 30 | Peldehue | 05-05-2026 07:15 | 12 | 50,3 | 0 | 0 | 208 | 0,6 | 934,4 |
| 29 | Peldehue | 05-05-2026 07:00 | 11,8 | 50,3 | 0 | 0 | 208 | 0,6 | 934,2 |
| 28 | Peldehue | 05-05-2026 06:45 | 11,8 | 51,1 | 0 | 0 | 208 | 0,6 | 934 |
| 27 | Peldehue | 05-05-2026 06:30 | 12 | 48 | 0 | 0 | 208 | 0,6 | 934,1 |
| 26 | Peldehue | 05-05-2026 06:15 | 12,2 | 49,1 | 0 | 0 | 208 | 0,6 | 933,5 |
| 25 | Peldehue | 05-05-2026 06:00 | 12,6 | 45,3 | 0 | 0 | 208 | 0,6 | 933,4 |
| 24 | Peldehue | 05-05-2026 05:45 | 11,9 | 48,4 | 0 | 0 | 208 | 0,6 | 932,8 |
| 23 | Peldehue | 05-05-2026 05:30 | 11,3 | 47,9 | 0 | 0 | 208 | 0,6 | 932,9 |
| 22 | Peldehue | 05-05-2026 05:15 | 10,9 | 49,2 | 0 | 0 | 208 | 0,6 | 932,5 |
| 21 | Peldehue | 05-05-2026 05:00 | 10,4 | 49,4 | 0 | 0 | 208 | 0,6 | 932,1 |
| 20 | Peldehue | 05-05-2026 04:45 | 10 | 49,8 | 0 | 0 | 208 | 0,6 | 932 |
| 19 | Peldehue | 05-05-2026 04:30 | 10,1 | 49,6 | 0 | 0 | 208 | 0,6 | 932 |
| 18 | Peldehue | 05-05-2026 04:15 | 10,5 | 47,4 | 0 | 0 | 208 | 0,6 | 932,1 |
| 17 | Peldehue | 05-05-2026 04:00 | 10,4 | 47,6 | 0 | 0 | 208 | 0,6 | 932,2 |
| 16 | Peldehue | 05-05-2026 03:45 | 9,3 | 50,6 | 0 | 0 | 208 | 0,6 | 932,4 |
| 15 | Peldehue | 05-05-2026 03:30 | 9,6 | 53 | 0 | 0 | 208 | 0,6 | 932,4 |
| 14 | Peldehue | 05-05-2026 03:15 | 9,6 | 53,4 | 0 | 0 | 208 | 0,6 | 932,5 |
| 13 | Peldehue | 05-05-2026 03:00 | 10,2 | 50,3 | 0 | 0 | 208 | 0,6 | 932,8 |
| 12 | Peldehue | 05-05-2026 02:45 | 11,1 | 47,1 | 0 | 0 | 208 | 0,6 | 933,3 |
| 11 | Peldehue | 05-05-2026 02:30 | 12,4 | 45,8 | 0 | 0 | 208 | 0,6 | 933,5 |
| 10 | Peldehue | 05-05-2026 02:15 | 11,9 | 46,5 | 0 | 0 | 208 | 0,6 | 933,9 |
| 9 | Peldehue | 05-05-2026 02:00 | 11,2 | 48,8 | 0 | 0 | 208 | 0,6 | 933,9 |
| 8 | Peldehue | 05-05-2026 01:45 | 12,2 | 44,3 | 0 | 0 | 208 | 0,6 | 933,9 |
| 7 | Peldehue | 05-05-2026 01:30 | 12,5 | 43,9 | 0 | 0 | 208 | 0,6 | 934 |
| 6 | Peldehue | 05-05-2026 01:15 | 11,6 | 46,1 | 0 | 0 | 208 | 0,6 | 934,2 |
| 5 | Peldehue | 05-05-2026 01:00 | 12,2 | 45 | 0 | 0,5 | 208 | 0,6 | 934 |
| 4 | Peldehue | 05-05-2026 00:45 | 11,8 | 47,9 | 0 | 0 | 208 | 0,6 | 934 |
| 3 | Peldehue | 05-05-2026 00:30 | 12,2 | 46,6 | 0 | 0 | 208 | 0,6 | 933,9 |
| 2 | Peldehue | 05-05-2026 00:15 | 13 | 45 | 0 | 0 | 208 | 0,6 | 933,9 |
| 1 | Peldehue | 05-05-2026 00:00 | 12,8 | 45,6 | 0 | 0 | 208 | 0,6 | 934,1 |